Preview of NWS' New Version of Forecast
This preview is not operational and should not be used for support decisions.

Regional Weather Roundup (RWR)

Issued by National Weather Service (NWS)

                            
000
ASUS43 KDTX 241110
RWRMI 
MICHIGAN HOURLY REGIONAL WEATHER ROUNDUP
NATIONAL WEATHER SERVICE DETROIT/PONTIAC MI
700 AM EDT WED APR 24 2019

NOTE: "FAIR" INDICATES FEW OR NO CLOUDS BELOW 12,000 FEET WITH NO
SIGNIFICANT WEATHER AND/OR OBSTRUCTION TO VISIBILITY.

MIZ047>049-052>055-059>063-066>070-074>076-081>083-241200-
SOUTHEAST LOWER MICHIGAN
  
CITY           SKY/WX    TMP DP  RH WIND       PRES   REMARKS
ADRIAN         FAIR      37  32  82 N5        30.03R WCI  33          
ALMA           FAIR      32  31  96 CALM      30.04R                  
ANN ARBOR      FAIR      33  30  88 NW3       30.01R                  
BAD AXE        FAIR      32  31  95 CALM      29.99R                  
CARO           FAIR      31  30  95 CALM      30.00S                  
DETROIT CITY   FAIR      39  33  79 CALM      30.01R                  
DETROIT        FAIR      39  32  76 NW6       30.02R WCI  35          
FLINT          FAIR      36  32  85 N3        30.02S                  
GROSSE ILE     FAIR      38  34  85 N5        30.01R WCI  35          
HILLSDALE      FAIR      35  31  87 CALM      30.01R                  
HOWELL         FAIR      36  32  86 CALM      30.01R                  

CITY           SKY/WX    TMP DP  RH WIND       PRES   REMARKS
JACKSON        FAIR      33  31  92 SW3       30.03R                  
LAMBERTVILLE   FAIR      38  36  92 CALM      30.03R                  
LANSING        FAIR      37  32  82 CALM      30.03R                  
LAPEER         FAIR      36  34  93 CALM      30.01S                  
MASON          FAIR      35  32  89 N3        30.02S                  
MONROE         FAIR      37  37  98 CALM      30.01S                  
MT. CLEMENS    CLOUDY    40  38  92 W5        29.99S                  
PONTIAC        FAIR      37  34  89 N7        29.99R WCI  32          
PORT HOPE        N/A     37  31  78 W7        29.97R WCI  32          
PORT HURON     FAIR      41  32  70 CALM      30.01R                  
TRI CITIES     FAIR      35  33  92 NW6       30.02S WCI  30          
MIDLAND        FAIR      30  29  96 CALM      30.02R                  
TROY           FAIR      39  32  76 NW5       30.03R                  
SAGINAW HB     FAIR      36  32  87 NW5       30.01S WCI  32          
$$
MIZ043>046-050>051-056>058-064>065-071>073-077>080-241200-
SOUTHWEST LOWER MICHIGAN
  
CITY           SKY/WX    TMP DP  RH WIND       PRES   REMARKS
BATTLE CREEK   FAIR      32  30  92 CALM      30.04R                  
BENTON HARBOR  FAIR      33  30  88 CALM      30.06R                  
BIG RAPIDS     FAIR      30  29  96 CALM      30.03R                  
COLDWATER      FAIR      33  33 100 CALM      30.03R FOG              
FREMONT        FAIR      31  31  98 CALM      30.03R                  
HOLLAND        FAIR      32  30  92 CALM      30.07R                  
GRAND RAPIDS   FAIR      37  30  75 W5        30.04R WCI  33          
IONIA          FAIR      34  28  80 CALM      30.03R                  
KALAMAZOO      FAIR      34  32  92 N5        30.05R WCI  30          
LUDINGTON      FAIR      31  30  98 CALM      30.04R                  
MARSHALL       FAIR      32  32 100 CALM      30.04R                  
MOUNT PLEASANT FAIR      32  32  99 CALM      30.02S                  
MUSKEGON       FAIR      32  27  81 CALM      30.06R                  
SOUTH HAVEN    FAIR      31  29  93 CALM      30.06R                  
$$
MIZ016>042-241200-
NORTHERN LOWER MICHIGAN
  
CITY           SKY/WX    TMP DP  RH WIND       PRES   REMARKS
ALPENA         FAIR      34  30  85 NW7       29.99S WCI  28          
BEAVER ISLAND  FAIR      26  26  98 CALM      30.01F                  
BELLAIRE       FAIR      29  27  94 CALM      30.03S                  
CADILLAC       FAIR      28  26  95 CALM      29.99F                  
CHARLEVOIX     FAIR      29  28  94 CALM      30.05R                  
FRANKFORT      FAIR      32  28  86 CALM      30.03S                  
GAYLORD        FAIR      28  27  96 CALM      29.99R                  
GRAYLING         N/A     27  27 100 CALM      30.00R                  
HARBOR SPRINGS FAIR      29  28  96 CALM      30.01S                  
HOUGHTON LAKE  FAIR      29  27  92 NW3       30.01R                  
MANISTEE       FOG       27  26  96 E5        30.03S VSB<1/4 WCI  22  
OSCODA         FAIR      30  28  92 W6        29.99R WCI  24          
PELLSTON       FAIR      24  23  96 CALM      30.01S                  
ROGERS CITY    FAIR      33  29  85 W5        30.01S WCI  29          
TRAVERSE CITY  FAIR      30  28  92 S3        30.02R                  
$$
MIZ007>008-015-241200-
EASTERN UPPER MICHIGAN
  
CITY           SKY/WX    TMP DP  RH WIND       PRES   REMARKS
KINROSS        FAIR      27  26  96 CALM      30.00S                  
MACKINAC ISLAN FAIR      31  31 100 NW3       30.00S                  
NEWBERRY       FAIR      28  25  91 CALM      29.99S                  
S. S. MARIE    FAIR      33  30  88 NW6       29.99S WCI  28          
MUNISING         N/A     29  21  72 S9        29.99S WCI  20          
$$
MIZ004>006-011>014-085-241200-
CENTRAL UPPER MICHIGAN
  
CITY           SKY/WX    TMP DP  RH WIND       PRES   REMARKS
MANISTIQUE     FAIR      26  21  80 W3        30.00S                  
ESCANABA       FAIR      29  27  92 CALM      30.01F                  
MENOMINEE      FAIR      30  28  92 CALM      30.02S                  
SAWYER-GWINN   CLOUDY    32  28  86 S3        29.97S                  
$$
MIZ001>003-009>011-084-241200-
WESTERN UPPER MICHIGAN
  
CITY           SKY/WX    TMP DP  RH WIND       PRES   REMARKS
IRON MOUNTAIN  FAIR      32  28  85 CALM      29.97S                  
HOUGHTON       CLOUDY    36  23  59 E6        29.92S WCI  31          
COPPER HARBOR    N/A     38  27  64 SW10G25   29.93F WCI  31          
IRONWOOD       MOCLDY    46  28  49 S9G16     29.90S                  
$$

ABBREVIATIONS USED IN REMARKS
   TC - TEMPERATURE IN CELSIUS
  WCI - WIND CHILL INDEX
   HX - HEAT INDEX
  VSB - VISIBILITY